Location: Deuil
(48.9767°N, 2.3272°E)
Time: 01:08:45
(UTC+00:00)

Cosmos 1953 - Visible Passes

Search period start: 24 May 2022 00:00
Search period end: 03 June 2022 00:00
Orbit: 537 x 552 km, 82.5° (Epoch: 23 May)

Date Brightness Start Highest point End Pass type
(mag) Time Alt. Az. Time Alt. Az. Time Alt. Az.
24 May 3.5 01:34:16 10° NNW 01:37:38 26° W 01:38:34 24° WSW visible
24 May 3.8 23:51:49 10° N 23:55:25 30° ENE 23:56:54 23° ESE visible
25 May 3.6 01:28:18 10° NNW 01:31:37 25° W 01:32:30 23° WSW visible
25 May 3.7 23:45:47 10° N 23:49:25 31° ENE 23:50:50 25° ESE visible
26 May 3.7 01:22:20 10° NW 01:25:36 24° W 01:26:25 22° WSW visible
26 May 3.6 23:39:44 10° N 23:43:24 33° ENE 23:44:46 26° ESE visible
27 May 3.7 01:16:22 10° NW 01:19:33 23° W 01:20:21 22° WSW visible
27 May 3.5 23:33:41 10° N 23:37:23 34° ENE 23:38:42 27° ESE visible
28 May 3.8 01:10:22 10° NW 01:13:31 22° W 01:14:18 21° WSW visible
28 May 3.4 23:27:38 10° N 23:31:21 35° ENE 23:32:38 28° ESE visible
29 May 3.9 01:04:23 10° NW 01:07:27 21° W 01:08:14 20° WSW visible
29 May 3.3 23:21:33 10° N 23:25:19 37° ENE 23:26:34 29° ESE visible
30 May 3.9 00:58:23 10° NW 01:01:23 21° W 01:02:10 19° WSW visible
30 May 3.3 23:15:29 10° N 23:19:15 38° ENE 23:20:31 30° ESE visible
31 May 4.0 00:52:23 10° NW 00:55:18 20° W 00:56:07 19° WSW visible
31 May 3.2 23:09:24 10° N 23:13:12 40° ENE 23:14:28 31° ESE visible
01 Jun 4.1 00:46:22 10° NW 00:49:13 19° W 00:50:03 18° WSW visible
01 Jun 3.1 23:03:18 10° N 23:07:07 42° ENE 23:08:24 31° ESE visible
02 Jun 4.1 00:40:21 10° NW 00:43:07 18° W 00:44:00 17° WSW visible
02 Jun 3.0 22:57:12 10° N 23:01:03 43° ENE 23:02:21 32° ESE visible
